AirNav   ATP
 
 680 users online  

2TS9 McBee Field Airport
Wills Point, Texas, USA


FAA INFORMATION EFFECTIVE 12 OCTOBER 2017

Location

FAA Identifier: 2TS9
Lat/Long: 32-45-26.7000N / 096-03-26.0000W
32-45.445000N / 096-03.433333W
32.7574167 / -96.0572222
(estimated)
Elevation: 543 ft. / 166 m
From city: 4 miles NW of WILLS POINT, TX
Time zone: UTC -5 (UTC -6 during Standard Time)
Zip code: 75169

Airport Operations

Airport use: Private use. Permission required prior to landing
Activation date: 10/2015
Control tower: no
ARTCC: FORT WORTH CENTER
FSS: FORT WORTH FLIGHT SERVICE STATION
Attendance: UNATNDD
Wind indicator: yes
Segmented circle: no

Airport Communications

WX ASOS at TRL (11 nm W): 119.275 (972-551-1334)
WX AWOS-3 at GVT (19 nm N): 133.425 (903-455-7703)

Nearby radio navigation aids

VOR radial/distance  VOR name  Freq  Var
CQYr007/35.3CEDAR CREEK VORTAC114.8006E
UIMr250/35.6QUITMAN VOR/DME114.0008E
SLRr216/37.0SULPHUR SPRINGS VOR/DME109.0008E

 
NDB name  Hdg/Dist  Freq  Var  ID
TRAVIS085/9.726006EAVZ .- ...- --..
CADDO MILLS144/19.531606EMII -- .. ..
MESQUITE094/24.024803EPQF .--. --.- ..-.
JECCA071/24.638806EJUG .--- ..- --.
ATHENS336/37.726906EAHX .- .... -..-

Airport Services

Runway Information

Runway 4/22

Dimensions: 1920 x 60 ft. / 585 x 18 m
Surface: turf
RUNWAY 4  RUNWAY 22
Traffic pattern: leftleft

Airport Ownership and Management from official FAA records

Ownership: Privately-owned
Owner: ROBERT NYCHKA
2830 VZ COUNTY ROAD 3804
WILLS POINT, TX 75169
Phone 214-293-1630
Manager: ROBERT NYCHKA
2830 VZ COUNTY ROAD 3804
WILLS POINT, TX 75169
Phone 214-293-1630

Airport Operational Statistics

Aircraft based on the field: 1
Single engine airplanes: 1
    

Instrument Procedures

There are no published instrument procedures at 2TS9.

Some nearby airports with instrument procedures:

KTRL - Terrell Municipal Airport (11 nm W)
KGVT - Majors Airport (19 nm N)
7F3 - Caddo Mills Municipal Airport (19 nm NW)
F46 - Ralph M Hall/Rockwall Municipal Airport (22 nm NW)
KHQZ - Mesquite Metro Airport (24 nm W)
 
Loc | Ops | Rwys | IFR | FBO | Links
Com | Nav | Svcs | Stats | Notes


 
Aerial photo
No photo
 
Airport distance calculator
Flying to McBee Field Airport? Find the distance to fly.

From to 2TS9

Sunrise and sunset
Times for 21-Oct-2017
 Local
(UTC-5)
 Zulu
(UTC)
Morning civil twilight07:0912:09
Sunrise07:3412:34
Sunset18:4423:44
Evening civil twilight19:0900:09

Current date and time
Zulu (UTC)  21-Oct-2017 12:26:24
Local (UTC-5)  21-Oct-2017 07:26:24
 
METAR
KTRL 
11nm W 
211201Z AUTO 14010KT 10SM BKN010 OVC015 22/19 A2993 RMK AO2 CIG 008V012 T02170194
KGVT 
19nm N 
211150Z AUTO 15010KT 10SM OVC009 22/20 A2994 RMK AO2
TAF
KDAL 
40nm W 
211129Z 2112/2212 16014KT P6SM BKN015 BKN025 TEMPO 2112/2115 SCT015 SCT030 FM211500 17018KT P6SM SCT015 BKN040 BKN150 FM220000 17013KT P6SM SCT050 BKN100 BKN250 FM220600 24015KT 5SM TSRA BKN025CB TEMPO 2206/2208 31030G40KT 1SM +TSRA BKN015CB OVC040 FM220900 34018KT P6SM SCT020 BKN100
KTYR 
41nm SE 
211145Z 2112/2212 15007KT P6SM OVC008 FM211600 17012KT P6SM BKN015 FM211900 17012G18KT P6SM BKN025 FM212000 17012G18KT P6SM BKN035 FM220000 15012KT P6SM BKN040 FM220400 17014KT P6SM BKN017 FM220900 21011KT P6SM VCTS BKN015CB
KDFW 
49nm W 
211129Z 2112/2218 16014KT P6SM BKN015 BKN025 TEMPO 2112/2115 SCT015 SCT030 FM211500 17018KT P6SM SCT015 BKN040 BKN150 FM220000 17013KT P6SM SCT050 BKN100 BKN250 FM220600 24015KT 5SM TSRA BKN025CB TEMPO 2206/2208 31030G40KT 1SM +TSRA BKN015CB OVC040 FM220900 34018KT P6SM SCT020 BKN100
NOTAMs
Click for the latest NOTAMs
NOTAMs are issued by the DoD/FAA and will open in a separate window not controlled by AirNav.

 

 
 

Would you like to see your business listed on this page?

 If your business provides an interesting product or service to pilots, flight crews, aircraft, or users of the McBee Field Airport, you should consider listing it here.  To start the listing process, click on the button below
 
Add a business
 

Other Pages about McBee Field Airport

Update a link
 
Copyright © AirNav, LLC. All rights reserved. Privacy Policy  Contact